Regional Weather Roundup
Issued by NWS San Angelo, TX

Home | Current Version | Previous Version | Text Only | Print | Product List | Glossary On
Versions: 1 2 3 4 5 6 7 8 9 10 11 12 13 14 15 16 17 18 19 20 21 22 23 24 25 26 27 28 29 30 31 32 33 34 35 36 37 38 39 40 41 42 43 44 45 46 47 48 49 50
000
ASUS44 KSJT 270610
RWRSJT
WEST CENTRAL TEXAS REGIONAL WEATHER ROUNDUP
NATIONAL WEATHER SERVICE SAN ANGELO TX
100 AM CDT TUE JUN 27 2017

NOTE: "FAIR" INDICATES FEW OR NO CLOUDS BELOW 12,000 FEET WITH NO
SIGNIFICANT WEATHER AND/OR OBSTRUCTIONS TO VISIBILITY.

TXZ049-054-064>066-071>073-076>078-098-099-113-114-127-128-139-140-
154-155-168>170-270700
...LOCATIONS ACROSS WEST CENTRAL TEXAS...

CITY           SKY/WX    TMP DP  RH WIND       PRES   REMARKS
SAN ANGELO     CLEAR     69  64  84 E5        30.10S
ABILENE        CLEAR     70  68  93 SE6       30.11R
DYESS AFB      NOT AVBL
JUNCTION       CLOUDY    71  68  90 E3        30.09R
SWEETWATER     CLEAR     71  69  94 CALM      30.16S
BROWNWOOD      MOCLDY    70  68  94 NW3       30.10R
COLEMAN        CLEAR     69  66  92 CALM      30.11S
SONORA         CLOUDY    72  66  83 SE6       30.14S
OZONA          FAIR      72  64  78 NE3       30.13S
BRADY          NOT AVBL
$$

TEXAS PANHANDLE/OKLAHOMA PANHANDLE

CITY           SKY/WX    TMP DP  RH WIND       PRES   REMARKS
AMARILLO       CLOUDY    69  62  78 S12       30.15F
BORGER         PTCLDY    75  59  57 S10       30.11R
CANADIAN       PTCLDY    75  67  76 S15G21    30.07R
DALHART        CLOUDY    72  63  73 W9        30.20R
DUMAS          CLOUDY    71  59  66 SW14      30.14F
GUYMON         NOT AVBL
HEREFORD       PTCLDY    69  64  85 S3        30.19R
PAMPA          PTCLDY    73  62  68 S13       30.13F
PERRYTON       CLOUDY    75  64  68 S13       30.09R
$$

SOUTHERN PANHANDLE/SOUTH PLAINS/ROLLING PLAINS

CITY           SKY/WX    TMP DP  RH WIND       PRES   REMARKS
LUBBOCK        PTCLDY    71  65  81 S8        30.15F
SNYDER         CLEAR     69  66  89 E3        30.13F
CHILDRESS      CLOUDY    73  66  78 S8        30.09S
SEMINOLE       CLEAR     69  64  85 E7        30.17S
$$

PERMIAN BASIN

CITY           SKY/WX    TMP DP  RH WIND       PRES   REMARKS
MIDLAND        CLEAR     72  65  78 E9        30.13S
ODESSA         CLEAR     72  65  78 E8        30.13F
WINK           CLEAR     75  65  70 SE9       30.09F
$$

FAR WEST/SOUTHWEST MOUNTAINS/TRANS PECOS

CITY           SKY/WX    TMP DP  RH WIND       PRES   REMARKS
ALPINE         CLEAR     74  56  53 CALM      30.24S
DRYDEN           N/A     77  64  64 E7        30.07R
EL PASO        MOCLDY    80  59  48 E10       30.13R THUNDER
FORT STOCKTON  CLEAR     74  63  68 SE10      30.11S
GUADALUPE PASS CLOUDY    69  60  73 MISG        N/A
MARFA          CLEAR     67  56  67 E5        30.22S
PECOS          CLEAR     77  61  58 E13       30.09S
$$

DALLAS/FORT WORTH METROPLEX

CITY           SKY/WX    TMP DP  RH WIND       PRES   REMARKS
DFW AIRPORT    MOCLDY    78  70  76 SE5       30.04S
FTW MEACHAM    PTCLDY    80  72  76 E7        30.05S
DAL-EXECUTIVE  CLOUDY    77  71  82 SE3       30.04S
GRAND PRAIRIE  MOCLDY    78  69  73 CALM      30.06S
ADDISON        CLEAR     78  69  73 E5        30.07S
MESQUITE       PTCLDY    76  69  78 E3        30.05S
LANCASTER      PTCLDY    76  70  83 CALM      30.06S
$$

NORTH CENTRAL TEXAS

CITY           SKY/WX    TMP DP  RH WIND       PRES   REMARKS
SHRMAN/DENISON CLEAR     73  66  78 SE7       30.07S
GAINESVILLE    CLEAR     71  65  82 E3        30.09R
BRIDGEPORT     PTCLDY    74  70  88 SE5       30.08S
DENTON         PTCLDY    74  71  91 SE3       30.05S
WAXAHACHIE     MOCLDY    75  72  89 CALM      30.06S
GRANBURY       PTCLDY    79  72  78 CALM      30.07S
$$

WESTERN NORTH TEXAS

CITY           SKY/WX    TMP DP  RH WIND       PRES   REMARKS
WICHITA FALLS  CLEAR     71  68  90 E3        30.06R
VERNON         CLOUDY    75  67  74 SE6       30.08R
BRECKENRIDGE   MOCLDY    75  69  81 S5        30.08S
COMANCHE       CLOUDY    72  72 100 CALM      30.09S
$$

CENTRAL AND SOUTH CENTRAL TEXAS

CITY           SKY/WX    TMP DP  RH WIND       PRES   REMARKS
AUSTIN/BERGSTM LGT RAIN  76  76 100 CALM      30.03F
WACO           CLOUDY    79  72  79 S10       30.05R
HILLSBORO      CLOUDY    78  73  85 E8        30.05S
TEMPLE         CLOUDY    76  72  87 S6        30.05S
KILLEEN-GRAY   LGT RAIN  73  70  90 S9        30.04F
FORT HOOD      CLOUDY    72  70  93 SE3       30.03S
GEORGETOWN     CLOUDY    73  70  88 NE3       30.05R
LAGO VISTA     LGT RAIN  73  72  95 SW3       30.06F
SAN MARCOS     CLOUDY    75  73  94 CALM      30.06F
NEW BRAUNFELS  LGT RAIN  76  73  91 NE3       30.04R
RANDOLPH AFB   RAIN      74  74 100 N3        30.05S
SAN ANTONIO    LGT RAIN  75  72  90 NE3       30.05F
STINSON        LGT RAIN  78  73  84 E5        30.02S
PLEASANTON     NOT AVBL
LA GRANGE      CLOUDY    76  74  94 CALM      30.01F
GIDDINGS       MOCLDY    74  71  89 CALM      30.05R
$$

EAST TEXAS

CITY           SKY/WX    TMP DP  RH WIND       PRES   REMARKS
PARIS            N/A     70  64  81 E6        30.07S
CLARKSVILLE    NOT AVBL
TYLER          MOCLDY    78  70  76 SE5       30.05S
LONGVIEW       CLOUDY    74  70  87 CALM      30.04
PALESTINE      MOCLDY    77  73  86 CALM      30.06S
NACOGDOCHES    PTCLDY    73  70  88 MISG      30.03S
$$

TEXAS HILL COUNTRY AND EDWARDS PLATEAU

CITY           SKY/WX    TMP DP  RH WIND       PRES   REMARKS
LLANO          MOCLDY    73  72  94 W3        30.08F
HORSESHOE BAY  FAIR      73  71  94 S3        30.05S
KERRVILLE      LGT RAIN  69  68  96 SE15      30.05F
FREDERICKSBRG  CLOUDY    70  67  88 S7        30.07F
ROCKSPRINGS    MOCLDY    72  72 100 SE8       30.12R
HONDO          CLOUDY    75  73  93 NE13      30.05S
UVALDE         PTCLDY    73  71  95 E8        30.05S
DEL RIO        LGT RAIN  75  71  87 E13       30.02R
$$

SOUTHEAST TEXAS

CITY           SKY/WX    TMP DP  RH WIND       PRES   REMARKS
COLLEGE STN    CLOUDY    74  72  93 S3        30.03F
CALDWELL       NOT AVBL
CROCKETT       CLOUDY    73  72  94 CALM      30.07S
BRENHAM        CLOUDY    75  73  94 CALM      30.04F
HUNTSVILLE     CLOUDY    76  70  82 S5        30.04R
CONROE         PTCLDY    73  71  93 SW3       30.03S
HOUSTON BUSH   MOCLDY    75  72  90 CALM      30.02S
HOUSTON HOBBY  CLOUDY    76  72  87 NE5       30.01S
PERLAND        MOCLDY    77  72  84 CALM      30.02S
WHARTON        PTCLDY    74  70  89 CALM      30.02S
$$

THE UPPER TEXAS COAST

CITY           SKY/WX    TMP DP  RH WIND       PRES   REMARKS
ORANGE         CLOUDY    76  75  95 CALM      30.04F
PORT ARTHUR    CLOUDY   N/A N/A N/A MISG      30.02F
GALVESTON      LGT RAIN  80  76  87 SE13      30.00F
ANGLETON       CLOUDY    76  75  97 CALM      30.00F
BAY CITY       LGT RAIN  75  74  96 SE7       29.99F
$$

TEXAS COASTAL BEND, RIO GRANDE PLAINS DEEP SOUTH TEXAS

CITY           SKY/WX    TMP DP  RH WIND       PRES   REMARKS
VICTORIA       CLOUDY    77  74  90 SE5       30.00S
BEEVILLE       FAIR     N/A N/A N/A NE5       30.00S
ROCKPORT       PTCLDY    82  73  74 E9        29.98R
PORT ARANSAS   PTCLDY    81  73  78 SE9       29.98R
PORT LAVACA    CLOUDY    76  75  97 CALM      30.00R
CORPUS CHRISTI PTCLDY    80  74  81 E3        29.98R
KINGSVILLE NAS CLEAR     76  76 100 MISG      29.97R
COTULLA        PTCLDY    77  71  82 E7        30.01R
LAREDO         CLEAR     77  73  87 E5        30.00R
BROWNSVILLE    PTCLDY    78  76  93 E3        29.95F
PORT ISABEL    CLEAR     80  76  87 S7        29.94F
HEBBRONVILLE   CLOUDY    76  73  89 CALM      30.00F
MCALLEN        PTCLDY    80  73  79 CALM      29.97S
WESLACO        PTCLDY    78  73  85 CALM      29.95S
FALFURRIAS     CLOUDY    78  74  88 CALM      29.97R
EDINBURG       CLEAR     78  73  84 CALM      29.97S
$$




USA.gov is the U.S. government's official web portal to all federal, state and local government web resources and services.